www.pogodaiklimat.ru

Погода и климат >> Архив погоды >> Япония >> Хаги


ПОГОДА в Хаги

  • Прогноз погоды в Хаги
  • Монитор погоды в Хаги

АРХИВ ПОГОДЫ в Хаги

Время (UTC), дата Ветер
(напр.,м/с)
 
Видим.   Явления Облачность Т
(С)
Тd
(С)
f
(%)
Тe
(С)
Тes
(С)
Комфортность P
(гПа)
Po
(гПа)
Тmin
(С)
Tmax
(С)
R
(мм)
R24
(мм)
S
(см)
16 16.08 Ю 2 15 км н/о +25.6 +22.7 84 +34 +34 очень
душно
1001.7 1001.3
17 16.08 ЮВ 2 14 км н/о +24.7 +22.6 88 +32 +32 очень
душно
1002.2 1001.8
18 16.08 Ю 2 14 км н/о +24.7 +22.6 88 +32 +32 очень
душно
1002.5 1002.1
19 16.08 Ю 2 12 км н/о +24.3 +22.7 91 +32 +32 очень
душно
1002.6 1002.2
20 16.08 Ю 2 11 км н/о +23.8 +22.6 93 +31 +31 очень
душно
1002.9 1002.5
21 16.08 Ю 2 12 км н/о +24.3 +22.6 90 +32 +32 очень
душно
1003.5 1003.1
22 16.08 Ю 2 14 км н/о +24.8 +22.9 89 +33 +33 очень
душно
1004.0 1003.6
23 16.08 Ю 2 16 км н/о +27.2 +22.8 77 +36 +36 очень
душно
1004.4 1004.0
00 17.08 Ю 2 18 км н/о +28.2 +23.1 74 +38 +38 очень
душно
1004.7 1004.3 +23.7
01 17.08 ЮВ 2 16 км н/о +29.6 +24.0 72 +41 +41 опасность
перегрева
1004.8 1004.4
02 17.08 СЗ 2 20 км н/о +30.1 +23.1 66 +40 +40 очень
душно
1004.6 1004.2
03 17.08 СЗ 3 17 км н/о +30.0 +23.7 69 +41 +41 опасность
перегрева
1004.2 1003.8
04 17.08 СЗ 3 17 км н/о +30.4 +24.6 71 +43 +43 опасность
перегрева
1004.2 1003.8
05 17.08 СЗ 3 18 км н/о +30.5 +24.4 70 +43 +43 опасность
перегрева
1003.7 1003.3
06 17.08 СЗ 3 15 км н/о +30.2 +24.4 71 +42 +42 опасность
перегрева
1003.2 1002.8
07 17.08 СЗ 3 19 км н/о +29.3 +24.4 75 +41 +41 опасность
перегрева
1003.2 1002.8
08 17.08 С 3 17 км н/о +28.9 +24.5 77 +41 +41 опасность
перегрева
1003.2 1002.8
09 17.08 С 2 20 км н/о +28.4 +24.4 79 +40 +40 очень
душно
1003.4 1003.0
10 17.08 СВ 2 20 км н/о +27.8 +24.0 80 +39 +39 очень
душно
1003.8 1003.4
13 17.08 Ю 2 12 км н/о +25.6 +24.4 93 +36 +36 очень
душно
1005.5 1005.1
14 17.08 Ю 2 12 км н/о +25.3 +24.1 93 +35 +35 очень
душно
1005.9 1005.5
15 17.08 Ю 2 10 км н/о +24.6 +23.9 96 +34 +34 очень
душно
1006.1 1005.7
16 17.08 Ю 3 10 км н/о +24.3 +23.6 96 +33 +33 очень
душно
1005.9 1005.5
06 19.08 ЮВ 3 9000 м слаб. дождь н/о +27.8 +25.1 85 +40 +40 очень
душно
1008.8 1008.4 0.5
09 19.08 Ю 1 6000 м в посл. час дождь н/о +26.7 +25.8 95 +40 +40 очень
душно
1008.4 1008.0
10 19.08 С 1 7000 м дымка н/о +26.7 +25.3 92 +39 +39 очень
душно
1008.9 1008.5
11 19.08 Ю 2 4500 м дымка н/о +25.8 +25.5 98 +38 +38 очень
душно
1009.3 1008.9
12 19.08 Ю 2 5000 м в посл. час дождь н/о +25.8 +25.3 97 +37 +37 очень
душно
1009.6 1009.2 +29.0 0.5
13 19.08 Ю 3 7000 м слаб. дождь н/о +25.4 +24.7 96 +36 +36 очень
душно
1008.5 1008.1
14 19.08 Ю 2 7000 м в посл. час дождь н/о +25.4 +24.5 95 +36 +36 очень
душно
1009.6 1009.2
15 19.08 Ю 2 6000 м дымка {дождь} н/о +25.0 +24.5 97 +35 +35 очень
душно
1009.9 1009.5
16 19.08 Ю 2 7000 м в посл. час дождь н/о +24.9 +24.4 97 +35 +35 очень
душно
1009.6 1009.2
17 19.08 Ю 2 7000 м слаб. дождь н/о +24.8 +24.3 97 +34 +34 очень
душно
1009.3 1008.9
18 19.08 ЮВ 1 4500 м слаб. дождь н/о +24.6 +24.4 99 +34 +34 очень
душно
1009.1 1008.7 0.0
19 19.08 ЮВ 2 5000 м в посл. час дождь н/о +24.5 +24.5 100 +34 +34 очень
душно
1009.2 1008.8
20 19.08 ЮВ 1 2800 м дождь н/о +24.2 +24.2 100 +33 +33 очень
душно
1010.1 1009.7
21 19.08 ЮВ 1 3400 м слаб. дождь н/о +24.2 +24.2 100 +33 +33 очень
душно
1010.3 1009.9
22 19.08 ЮВ 2 1100 м дождь н/о +24.2 +24.2 100 +33 +33 очень
душно
1010.3 1009.9
23 19.08 ЮВ 1 3300 м дождь н/о +24.3 +24.3 100 +34 +34 очень
душно
1009.9 1009.5
00 20.08 Ю 2 11 км слаб. дождь н/о +24.4 +24.4 100 +34 +34 очень
душно
1010.2 1009.8 +24.1 27
01 20.08 З 2 20 км слаб. дождь н/о +25.2 +24.7 97 +35 +35 очень
душно
1010.2 1009.8
02 20.08 Ю 2 20 км слаб. дождь н/о +26.0 +25.0 94 +37 +37 очень
душно
1010.5 1010.1
03 20.08 Ю 3 20 км в посл. час дождь н/о +28.5 +25.1 82 +41 +41 опасность
перегрева
1009.4 1009.0
04 20.08 С 2 20 км в посл. час дождь н/о +27.5 +25.5 89 +40 +40 очень
душно
1009.6 1009.2
05 20.08 СЗ 2 20 км слаб. дождь н/о +26.8 +25.0 90 +39 +39 очень
душно
1009.6 1009.2
06 20.08 ЮВ 2 19 км слаб. дождь н/о +27.1 +25.3 90 +39 +39 очень
душно
1009.1 1008.7 2
07 20.08 Ю 2 20 км в посл. час дождь н/о +29.0 +26.4 86 +44 +44 опасность
перегрева
1008.8 1008.4
08 20.08 Ю 1 19 км слаб. дождь н/о +28.8 +26.4 87 +44 +44 опасность
перегрева
1009.3 1008.9
10 20.08 С 1 20 км в посл. час дождь н/о +26.9 +25.7 93 +40 +40 очень
душно
1009.4 1009.0
11 20.08 ЮЗ 1 7000 м слаб. дождь н/о +26.3 +26.0 98 +39 +39 очень
душно
1010.2 1009.8
12 20.08 ЮВ 2 4500 м слаб. дождь н/о +25.9 +25.9 100 +38 +38 очень
душно
1010.7 1010.3 +29.2 3
13 20.08 Ю 3 3100 м дождь н/о +25.7 +25.7 100 +38 +38 очень
душно
1010.2 1009.8
14 20.08 З 1 3600 м дождь н/о +25.3 +25.3 100 +36 +36 очень
душно
1009.9 1009.5
15 20.08 С 1 11 км слаб. дождь н/о +25.3 +25.3 100 +36 +36 очень
душно
1009.9 1009.5
16 20.08 Ю 1 10 км слаб. дождь н/о +25.2 +25.2 100 +36 +36 очень
душно
1009.4 1009.0
17 20.08 ЮВ 1 11 км слаб. дождь н/о +25.2 +25.2 100 +36 +36 очень
душно
1009.2 1008.8
18 20.08 ЮВ 1 12 км в посл. час дождь н/о +25.2 +25.2 100 +36 +36 очень
душно
1009.0 1008.6 16
20 20.08 Ю 2 9000 м слаб. дождь н/о +25.4 +25.2 99 +37 +37 очень
душно
1008.8 1008.4
22 20.08 Ю 3 13 км слаб. дождь н/о +26.5 +25.5 94 +39 +39 очень
душно
1009.9 1009.5
23 20.08 Ю 3 18 км в посл. час дождь н/о +28.2 +25.4 85 +41 +41 опасность
перегрева
1009.9 1009.5
00 21.08 Ю 2 18 км {дождь} н/о +28.0 +25.4 86 +41 +41 опасность
перегрева
1010.6 1010.2 +25.0 16
01 21.08 Ю 2 18 км н/о +28.7 +25.3 82 +42 +42 опасность
перегрева
1010.9 1010.5
02 21.08 Ю 3 18 км в посл. час дождь н/о +29.4 +25.6 80 +43 +43 опасность
перегрева
1010.5 1010.1
03 21.08 Ю 3 18 км {дождь} н/о +30.8 +25.9 75 +46 +46 опасность
перегрева
1010.0 1009.6
05 21.08 СЗ 2 20 км в посл. час дождь н/о +30.8 +24.7 70 +44 +44 опасность
перегрева
1009.3 1008.9
06 21.08 СЗ 3 20 км {дождь} н/о +29.6 +25.8 80 +44 +44 опасность
перегрева
1009.3 1008.9 0.0
07 21.08 С 2 20 км н/о +30.9 +26.0 75 +46 +46 опасность
перегрева
1009.2 1008.8
09 21.08 СЗ 2 20 км н/о +30.6 +25.4 74 +45 +45 опасность
перегрева
1009.5 1009.1
10 21.08 В 1 20 км н/о +28.8 +25.8 84 +43 +43 опасность
перегрева
1009.9 1009.5
11 21.08 Ю 2 18 км н/о +28.2 +25.8 87 +42 +42 опасность
перегрева
1010.6 1010.2
12 21.08 Ю 2 16 км н/о +27.5 +25.9 91 +41 +41 опасность
перегрева
1010.9 1010.5 +31.9 0.0
13 21.08 Ю 3 15 км н/о +26.9 +25.7 93 +40 +40 очень
душно
1010.9 1010.5
15 21.08 Ю 4 16 км н/о +26.4 +24.8 91 +38 +38 очень
душно
1010.2 1009.8
16 21.08 Ю 3 19 км н/о +26.1 +24.5 91 +37 +37 очень
душно
1009.8 1009.4
17 21.08 Ю 4 18 км н/о +25.7 +24.3 92 +36 +36 очень
душно
1009.4 1009.0
18 21.08 Ю 4 20 км н/о +25.9 +24.3 91 +36 +36 очень
душно
1009.2 1008.8
19 21.08 Ю 3 19 км н/о +26.0 +24.2 90 +36 +36 очень
душно
1009.1 1008.7
20 21.08 Ю 2 16 км н/о +25.2 +24.0 93 +35 +35 очень
душно
1009.3 1008.9
22 21.08 Ю 3 18 км н/о +26.5 +24.5 89 +37 +37 очень
душно
1009.5 1009.1
23 21.08 Ю 3 20 км н/о +28.1 +24.3 80 +39 +39 очень
душно
1009.6 1009.2
00 22.08 Ю 3 20 км н/о +29.6 +24.3 73 +41 +41 опасность
перегрева
1009.5 1009.1 +25.1
01 22.08 Ю 4 20 км н/о +29.9 +23.6 69 +41 +41 опасность
перегрева
1009.4 1009.0
02 22.08 Ю 4 20 км н/о +30.2 +23.6 68 +41 +41 опасность
перегрева
1008.7 1008.3
04 22.08 Ю 3 20 км н/о +31.4 +24.3 66 +44 +44 опасность
перегрева
1007.7 1007.3
05 22.08 Ю 3 20 км н/о +32.1 +24.7 65 +45 +45 опасность
перегрева
1007.3 1006.9
06 22.08 Ю 3 20 км н/о +31.3 +24.7 68 +44 +44 опасность
перегрева
1006.3 1005.9
07 22.08 ЮВ 4 17 км слаб. дождь н/о +30.0 +24.6 73 +43 +43 опасность
перегрева
1006.4 1006.0
08 22.08 Ю 3 20 км в посл. час дождь н/о +30.1 +24.7 73 +43 +43 опасность
перегрева
1006.6 1006.2
09 22.08 Ю 3 14 км слаб. дождь н/о +28.6 +25.0 81 +41 +41 опасность
перегрева
1006.7 1006.3
11 22.08 Ю 3 11 км слаб. дождь н/о +26.2 +25.7 97 +39 +39 очень
душно
1008.0 1007.6
12 22.08 Ю 3 20 км в посл. час дождь н/о +26.4 +25.2 93 +38 +38 очень
душно
1008.2 1007.8 +32.2 2
13 22.08 Ю 3 20 км н/о +26.3 +24.9 92 +38 +38 очень
душно
1008.3 1007.9
14 22.08 Ю 3 20 км н/о +26.5 +24.7 90 +38 +38 очень
душно
1008.1 1007.7
15 22.08 Ю 2 20 км н/о +26.4 +24.4 89 +37 +37 очень
душно
1008.2 1007.8
16 22.08 Ю 2 20 км н/о +26.1 +24.3 90 +36 +36 очень
душно
1007.9 1007.5
17 22.08 Ю 2 20 км н/о +26.1 +24.2 89 +36 +36 очень
душно
1007.9 1007.5
18 22.08 Ю 2 20 км н/о +25.6 +24.4 93 +36 +36 очень
душно
1007.6 1007.2
19 22.08 ЮВ 1 20 км н/о +25.8 +24.4 92 +36 +36 очень
душно
1007.8 1007.4
20 22.08 Ю 3 16 км слаб. дождь н/о +25.7 +24.3 92 +36 +36 очень
душно
1007.9 1007.5
21 22.08 Ю 2 20 км в посл. час дождь н/о +24.9 +24.4 97 +35 +35 очень
душно
1008.4 1008.0
22 22.08 Ю 3 20 км н/о +25.3 +24.6 96 +36 +36 очень
душно
1008.4 1008.0
23 22.08 Ю 3 20 км н/о +26.6 +24.8 90 +38 +38 очень
душно
1008.6 1008.2
00 23.08 Ю 3 17 км {дождь} н/о +28.9 +24.9 79 +41 +41 опасность
перегрева
1008.7 1008.3 +24.8 2
01 23.08 Ю 2 17 км н/о +30.3 +24.2 70 +42 +42 опасность
перегрева
1008.9 1008.5
02 23.08 Ю 3 16 км н/о +30.3 +23.7 68 +41 +41 опасность
перегрева
1008.9 1008.5
03 23.08 ЮЗ 3 17 км н/о +31.1 +23.5 64 +42 +42 опасность
перегрева
1008.6 1008.2
04 23.08 З 3 17 км н/о +30.5 +23.2 65 +41 +41 опасность
перегрева
1008.4 1008.0
05 23.08 З 3 16 км н/о +29.7 +22.4 65 +39 +39 очень
душно
1008.7 1008.3
06 23.08 СЗ 3 14 км слаб. дождь н/о +28.2 +23.1 74 +38 +38 очень
душно
1008.6 1008.2 0.0
07 23.08 З 3 14 км в посл. час дождь н/о +29.1 +23.3 71 +39 +39 очень
душно
1008.7 1008.3
08 23.08 З 2 13 км н/о +28.2 +23.4 75 +38 +38 очень
душно
1008.8 1008.4
09 23.08 СЗ 2 7000 м слаб. дождь н/о +27.3 +24.6 85 +39 +39 очень
душно
1009.0 1008.6
11 23.08 Ю 2 6000 м в посл. час дождь н/о +25.1 +24.4 96 +35 +35 очень
душно
1009.8 1009.4
13 23.08 Ю 3 9000 м в посл. час дождь н/о +24.4 +23.0 92 +32 +32 очень
душно
1010.2 1009.8
14 23.08 Ю 3 9000 м в посл. час дождь н/о +24.1 +22.7 92 +32 +32 очень
душно
1009.9 1009.5
15 23.08 Ю 3 9000 м в посл. час дождь н/о +23.8 +22.4 92 +31 +31 очень
душно
1010.2 1009.8

 

Местоположение метеостанции Хаги (Япония): широта 34.42 долгота 131.40 высота над уровнем моря 7 м.

В архиве по умолчанию представлена погода в Хаги за последнюю неделю. Архивные данные за месяц целиком и за предыдущие месяцы, начиная с января 2011 года, Вы можете получить, выбрав интересующий диапазон дат из раскрывающегося списка и нажав кнопку "Ввод!".


*Определитесь, кто Вы:
робот инопланетянин человек

Внимание! Время в таблицах - всемирное. Для получения местного времени необходимо прибавить поправку, которая равна 9 ч.

Смотрите также архив погоды в соседних городах и на ближайших метеорологических станциях:

Погода в Ямагути (Япония) (28 км)
Погода в Симоносеки (Япония) (68 км)
Погода в Хамаде (Япония) (81 км)
Погода в Хиросиме (Япония) (97 км)
Погода в Куре (Япония) (108 км)
Погода в Иидзуке (Япония) (108 км)
Погода в Хите (Япония) (130 км)
Погода в Фукуоке (Япония) (133 км)
Погода в Оите (Япония) (134 км)
Погода в Мацуяме (Япония) (142 км)

Пояснения к столбцам:

Ветер - указаны скорость ветра в м/с - средняя за 10 мин, порывы в срок и между сроками (в фигурных скобках) и направление, откуда дует ветер: С - северный, СВ - северо-восточный, В - восточный, ЮВ - юго-восточный, Ю - южный, ЮЗ - юго-западный, З - западный, СЗ - северо-западный.
Видимость - горизонтальная дальность видимости в метрах или километрах. При видимости от 1 до 10 км при отсутствии осадков обычно наблюдается дымка, при ухудшении видимости до 1 км и менее - туман. В сухую погоду видимость может ухудшаться дымом, пылью или мглою.
Явления - указаны атмосферные явления, наблюдавшиеся в срок или в последний час перед сроком; фигурными скобками обозначены явления, наблюдавшиеся между сроками (за 1-3 часа до срока); квадратными скобками обозначены град или гололедные отложения с указанием их диаметра в мм.
Облачность - указаны через наклонную черту общая и нижняя облачность в баллах и высота нижней границы облаков в метрах; квадратными скобками обозначены формы облаков: Ci - перистые, Cs - перисто-слоистые, Cc - перисто-кучевые, Ac - высококучевые, As - высокослоистые, Sc - слоисто-кучевые, Ns - слоисто-дождевые, Cu - кучевые, Cb - кучево-дождевые. Подробнее классификацию облаков см. в Атласе облаков (PDF).
T - Температура воздуха - температура, измеренная на высоте 2 м над землей.
Td - Температура точки росы - температура, при понижении до которой содержащийся в воздухе водяной пар достигнет насыщения.
f - Относительная влажность воздуха - влажноcть воздуха, измеренная на высоте 2 м над землей.
Te - Эффективная температура - температура, которую ощущает одетый по сезону человек в тени. Характеристика душности погоды. При расчете учитывается влияние влажности воздуха и скорости ветра на теплоощущения человека.
Tes - Эффективная температура на солнце - температура, которую ощущает человек, с поправкой на солнечный нагрев. Характеристика знойности погоды. Зависит от высоты солнца над горизонтом, облачности и скорости ветра. Ночью, в пасмурную погоду, а также при ветре 12 м/с и более поправка равна нулю.
P - Атмосферное давление - приведенное к уровню моря атмосферное давление.
Po - Атмосферное давление - измеренное на уровне метеостанции атмосферное давление.
Tmin - Минимальная температура - минимум температуры воздуха на высоте 2 м над землей.
Tmax - Максимальная температура - максимум температуры воздуха на высоте 2 м над землей.
R - Количество осадков - Количество выпавших осадков за период времени, мм. При наведении курсора мыши на число - период времени, за который выпало указанное количество осадков.
R24 - Количество осадков - Количество выпавших осадков за 24 часа, мм.
S - Снежный покров - Высота снежного покрова, см. При наведении курсора мыши на число - состояние снежного покрова и степень покрытия местности в баллах.